Notices

Please take our survey and provide feedback: https://eccc.sondage-survey.ca/f/LanguageSelection.aspx?s=442ca660-fcf1-47c0-95a9-59707d6fd709

Please note that for the Engineering Climate Datasets, IDF dataset is available through this link.  Intensity-Duration-Frequency (IDF) Files: Includes the latest version of short-duration rainfall Intensity-Duration-Frequency (IDF) statistics in the form of tables and graphs with accompanying documentation for various locations across Canada.  Current IDF files can be accessed through our station finder application or downloaded for each province and territory across Canada.  In addition, historical versions of IDF files are also available for download.  Updates of IDF files are provided approximately every two years depending on the availability of data.   Thank you for your patience as we enhance our systems.

Hourly Data Report for February 01, 2019

HALIFAX STANFIELD INT'L A
NOVA SCOTIA
Current Station Operator: NAVCAN

44°52'52.000" N
63°30'31.000" W
145.40 m
8202251
71395
YHZ

Download Data

Hourly Data (February 2019)
Hourly Data Report for February 1, 2019
TIME
LST
Temp Definition
°C
Dew Point Definition
°C
Rel Hum Definition
%
Precip. Amount Definition
mm

Wind Dir Definition
10's deg

Wind Spd Definition
km/h
Visibility Definition
km
Stn Press Definition
kPa
Hmdx Definition


Wind Chill Definition


Weather Definition


00:00 -12.6 -16.8 71   25 20 24.1 100.05   -21 LegendNANA
01:00 -12.8 -16.5 74   25 19 22.5 100.07   -21 LegendNANA
02:00 -12.3 -14.2 86   29 22 3.2 100.10   -21 Snow
03:00 -13.1 -18.0 67   30 23 24.1 100.10   -22 LegendNANA
04:00 -13.5 -18.4 67   26 14 24.1 100.08   -21 LegendNANA
05:00 -14.8 -17.5 80   21 14 24.1 100.11   -22 Mainly Clear
06:00 -15.1 -17.5 82   20 13 24.1 100.09   -22 LegendNANA
07:00 -14.6 -17.0 82   22 16 24.1 100.10   -23 LegendNANA
08:00 -14.2 -16.3 84   22 16 24.1 100.14   -22 Mainly Clear
09:00 -12.2 -14.8 81   23 21 24.1 100.16   -21 LegendNANA
10:00 -10.3 -13.9 75   26 23 24.1 100.16   -19 LegendNANA
11:00 -9.5 -14.9 65   26 35 24.1 100.16   -20 Mostly Cloudy
12:00 -8.9 -12.9 73   26 32 4.8 100.07   -18 Snow Showers
13:00 -9.2 -15.7 60   28 25 16.1 99.98   -18 Snow Showers
14:00 -8.0 -16.4 51   25 36 24.1 99.91   -18 Mostly Cloudy
15:00 -8.3 -16.0 54   28 30 24.1 99.88   -17 LegendNANA
16:00 -8.6 -14.5 63   29 25 24.1 99.90   -17 LegendNANA
17:00 -9.0 -14.2 66   27 21 24.1 99.93   -17 Mostly Cloudy
18:00 -9.3 -14.6 66   25 26 24.1 99.98   -18 LegendNANA
19:00 -10.2 -14.2 73   25 24 24.1 99.98   -19 LegendNANA
20:00 -10.4 -14.5 72   24 23 24.1 99.99   -19 Mainly Clear
21:00 -10.6 -14.4 74   24 24 24.1 100.01   -19 LegendNANA
22:00 -10.9 -14.0 78   24 23 24.1 99.98   -20 LegendNANA
23:00 -10.9 -14.0 78   25 24 24.1 99.95   -20 Mainly Clear

Notes on Data Quality.

Legend

  • E = Estimated
  • M = Missing
  • NA = Not Available*
  • [empty] = Indicates an unobserved value
Date modified: